Location: Griffin Ranch
(33.6186°N, 110.6622°W)
Time: 14:23:24
(UTC-07:00)

Daily predictions for brighter satellites

Satellite Brightness Start Highest point End
(mag) Time Altitude Azimuth Time Altitude Azimuth Time Altitude Azimuth
ATLAS 3B R/B 4.1 19:43:20 10° SW 19:50:13 46° NW 19:56:53 10° NNE
Atlas Centaur 2 1.9 19:47:21 10° W 19:51:34 42° SSW 19:55:08 10° ESE
Cosmos 1975 3.7 19:49:03 10° NNE 19:52:39 31° E 19:56:12 10° SE
Resurs 1-3 4.4 19:49:41 10° SE 19:53:39 35° ENE 19:57:38 10° N
Envisat 3.1 19:49:09 10° S 19:54:13 84° WSW 19:59:20 10° NNW
Cosmos 1743 3.9 19:54:10 10° NNE 19:57:22 25° ENE 20:00:33 10° SE
GPS 2-05 Rocket1 3.1 19:54:41 10° SW 19:57:49 43° SSE 20:01:00 10° E
Timation 2 Rocket 3.9 19:53:21 10° SSW 19:59:18 86° ESE 20:05:22 10° NNE
Cosmos 1378 Rocket 3.5 19:55:51 10° S 20:00:09 89° E 20:04:29 10° N
Cosmos 2208 Rocket 4.2 19:55:25 10° SSW 20:00:34 76° WNW 20:05:46 10° NNE
H-2A R/B 4.0 20:00:00 10° ENE 20:01:04 11° ENE 20:02:09 10° NE
BREEZE-M DEB (TANK) 3.6 20:03:29 10° NNW 20:05:30 26° NE 20:08:51 10° ESE
Cosmos 2084 4.4 20:02:11 10° SW 20:06:30 53° WNW 20:10:35 10° NNE
Cosmos 1975 Rocket 3.4 20:02:41 10° SSE 20:06:48 45° E 20:10:55 10° NNE
Okean 1 Rocket 3.0 20:09:21 10° N 20:13:41 89° NE 20:18:01 10° S
Cosmos 1725 Rocket 4.4 20:08:48 10° SSW 20:14:56 67° W 20:21:07 10° N
ATLAS CENTAUR R/B 3.4 20:13:30 10° NW 20:17:31 29° WSW 20:21:40 10° S
Cosmos 1242 Rocket 3.0 20:14:43 10° N 20:18:11 42° E 20:20:59 14° SSE
USA 186 2.2 20:15:14 10° S 20:18:24 65° W 20:21:46 10° NNW
Okean 1 4.3 20:15:11 10° SSW 20:19:06 51° W 20:23:05 10° N
YAOGAN 6 3.0 20:16:29 10° S 20:20:08 65° W 20:23:48 10° NNW
ARGOS 4.4 20:19:05 13° ESE 20:22:40 25° ENE 20:27:00 10° NNE
Meteor 2-4 Rocket 4.0 20:17:50 10° SSE 20:22:57 44° E 20:28:12 10° NNE
Cosmos 540 Rocket 4.3 20:18:40 10° SSE 20:23:05 29° E 20:27:31 10° NE
Shenzhou-11 Module 4.1 20:21:09 10° NW 20:23:31 21° NNE 20:25:53 10° ENE
Tsikada Rocket 4.2 20:18:47 10° N 20:25:13 83° W 20:31:37 10° S
Meteor 1-12 Rocket 4.4 20:20:56 10° N 20:26:55 71° E 20:32:55 10° SSE
Lacrosse 5 rocket 3.6 20:27:37 10° N 20:30:18 16° NE 20:32:52 10° ENE
Thor Agena Rocket 4.4 20:25:18 10° N 20:30:26 55° WNW 20:35:28 10° SSW
NOAA 11 4.2 20:25:25 10° SSE 20:30:45 68° ENE 20:36:11 10° N
Tiangong 2 3.9 20:28:55 10° NW 20:30:55 15° N 20:32:55 10° NE
Spot 2 Rocket 3.5 20:27:59 12° SSE 20:32:40 70° ENE 20:37:40 10° N
SJ 16-02 3.4 20:31:54 10° NNE 20:34:09 14° ENE 20:35:37 12° E
Cosmos 2322 Rocket 2.2 20:29:50 10° NNW 20:35:26 69° ENE 20:39:39 18° SSE
Cosmos 1939 Rocket 3.8 20:32:31 10° S 20:36:29 49° W 20:40:31 10° NNW
Cosmos 1763 Rocket 3.8 20:31:41 10° SSW 20:36:58 71° WNW 20:42:15 10° NNE
Cosmos 1536 Rocket 4.4 20:38:24 22° SE 20:40:18 30° E 20:44:12 10° NNE
Cosmos 1937 Rocket 3.5 20:35:52 10° NNW 20:40:59 68° ENE 20:44:32 20° SSE
Cosmos 292 Rocket 3.7 20:38:31 10° SSW 20:43:16 85° ESE 20:48:03 10° NNE
Cosmos 841 Rocket 3.5 20:39:15 10° SSW 20:44:29 89° WNW 20:49:47 10° NNE
SL-16 R/B 2.2 20:40:43 10° NNW 20:46:25 89° WSW 20:50:36 19° SSE
Cosmos 1340 Rocket 2.7 20:47:06 15° S 20:50:23 72° E 20:54:27 10° NNE
Resurs 01 Rocket 2.4 20:46:15 10° S 20:50:31 49° W 20:54:48 10° NNW
Cosmos 2298 Rocket 4.0 20:46:44 10° N 20:52:01 68° ENE 20:55:03 25° SSE
Chunghua 1 4.5 20:55:20 10° W 20:59:03 84° NNW 21:00:57 28° ENE
Cosmos 1072 Rocket 4.5 20:54:07 10° S 21:00:27 77° E 21:06:44 10° N
DELTA 2 R/B (1) 3.6 20:56:10 10° SW 21:01:34 57° SSE 21:07:01 10° ENE
Cosmos 2219 4.1 21:02:07 26° ESE 21:02:31 26° ESE 21:07:13 10° NE
ERS-2 4.1 20:59:41 10° SSW 21:02:48 26° W 21:05:56 10° NW
CZ-4C R/B 4.3 20:57:46 10° N 21:03:42 26° NE 21:08:19 16° E
SL-08 RB Rocket 4.1 21:02:35 33° ESE 21:04:00 45° ENE 21:08:21 10° N
USA 234 3.6 20:57:53 10° NE 21:04:24 70° NW 21:10:55 10° SW
USA 32 3.9 20:59:36 10° N 21:04:50 73° E 21:07:39 28° SSE
ERS-1 Rocket 3.5 21:07:40 33° ESE 21:09:12 42° ENE 21:13:55 10° N
Cosmos 1356 4.0 21:14:12 27° SSW 21:15:50 57° W 21:19:15 10° N
Cosmos 1025 Rocket 3.8 21:17:05 34° E 21:17:05 34° E 21:20:47 10° NNE
Delta 7925 Rocket 4.5 21:15:10 10° WSW 21:18:49 24° SSW 21:18:49 24° SSW
Cosmos 2360 Rocket 2.1 21:18:08 10° NNW 21:23:47 75° ENE 21:25:42 43° SE
CENTAUR R/B 3.9 21:19:13 10° WSW 21:24:39 38° NW 21:30:50 10° NNE
Aureole 2 Rocket 3.0 21:22:25 10° NNW 21:24:40 40° WNW 21:24:40 40° WNW
Cosmos 2219 Rocket 3.7 21:22:05 10° N 21:26:14 21° ENE 21:27:26 20° ENE
MetOp-A 4.1 21:25:11 35° S 21:27:32 79° WSW 21:32:54 10° NNW
Meteor 1-15 Rocket 4.2 21:23:02 10° N 21:28:43 67° E 21:30:19 46° SE
Okean 2 3.3 21:29:31 65° E 21:29:34 65° E 21:33:42 10° NNE
Skynet4D Del rocket 4.1 21:28:44 10° WSW 21:34:42 41° S 21:34:43 41° S
GPS 2-05 Rocket1 3.5 21:31:43 10° W 21:34:23 51° WNW 21:34:23 51° WNW
SPOT 1/Viking Rocket 3.9 21:35:49 44° E 21:36:28 46° ENE 21:41:24 10° N
Cosmos 1455 Rocket 4.0 21:32:52 10° NNW 21:37:01 44° W 21:38:39 30° SW
Helios 1A 3.4 21:37:36 47° ENE 21:37:36 47° ENE 21:41:22 10° N
USA 245 3.3 21:38:07 71° NNE 21:38:07 71° NNE 21:42:07 10° N
Atlas Centaur 2 3.6 21:37:35 10° WSW 21:38:07 12° SW 21:38:07 12° SW
H-2A R/B 2.0 21:38:23 47° S 21:39:46 72° WSW 21:44:48 10° NNW
Landsat 7 4.5 21:41:04 39° ENE 21:41:04 39° ENE 21:45:29 10° N
Cosmos 1125 Rocket 3.6 21:36:41 10° N 21:41:52 58° ENE 21:42:26 55° E
Cosmos 1356 Rocket 3.4 21:43:16 79° ENE 21:43:16 79° ENE 21:47:25 10° N
Cosmos 2034 Rocket 4.1 21:39:40 25° SSW 21:43:26 71° W 21:49:35 10° N
COSMOS 2455 4.0 21:57:07 28° ENE 21:57:07 28° ENE 22:00:33 10° NE
Cosmos 2333 Rocket 3.1 21:52:10 10° N 21:57:20 34° ENE 21:57:46 33° ENE
Terra 2.7 22:00:26 38° NE 22:00:26 38° NE 22:04:18 10° N
COSMOS 2428 2.8 21:54:43 10° NNW 22:00:20 60° ENE 22:00:42 58° E
Helios 1B rocket 2.9 21:57:37 10° NNE 22:00:55 56° N 22:00:55 56° N
ARGOS 4.4 22:00:35 26° SW 22:02:40 34° W 22:07:34 10° NNW
SPOT 5 2.8 22:05:37 72° NW 22:05:37 72° NW 22:09:47 10° NNW
Tiangong 2 3.8 22:05:53 10° NW 22:07:27 19° NNW 22:07:27 19° NNW
Cosmos 1634 Rocket 3.9 22:07:53 66° SE 22:08:31 71° E 22:14:50 10° N
Cosmos 2297 Rocket 3.5 22:10:45 27° ENE 22:10:45 27° ENE 22:13:45 10° NE
Lacrosse 5 rocket 2.3 22:05:44 10° NW 22:08:48 43° WNW 22:08:48 43° WNW
IGS 5A 4.5 22:12:02 41° NNE 22:12:02 41° NNE 22:14:54 10° N
Cosmos 2227 Rocket 3.2 22:14:14 34° ENE 22:14:14 34° ENE 22:17:47 10° NE
SJ 16-02 2.3 22:08:44 10° NNW 22:12:38 42° W 22:12:38 42° W
Nimbus 7 Rocket 4.3 22:10:57 10° NNE 22:16:42 69° E 22:16:42 69° E
Cosmos 2322 4.3 22:16:13 10° NW 22:21:40 46° WSW 22:22:10 45° WSW
Cosmos 2237 Rocket 3.4 22:18:54 10° N 22:23:44 31° ENE 22:23:44 31° ENE
Okean 1-7 Rocket 4.3 22:25:45 52° NNW 22:25:45 52° NNW 22:29:24 10° N
DELTA 2 R/B (1) 4.1 22:42:36 10° W 22:48:05 57° NNW 22:48:25 56° N
Meteor 1-21 4.5 22:51:53 63° N 22:51:53 63° N 22:56:38 10° N
CZ-4C R/B 2.9 22:45:21 10° NW 22:52:52 73° WSW 22:53:30 70° SSW
CZ-2C R/B 3.1 22:55:42 10° N 23:00:28 62° NNW 23:00:28 62° NNW
NOSS 0 Rocket 4.1 22:57:09 10° NNW 23:02:39 70° NNW 23:02:39 70° NNW
CZ-3 Stage 3 4.5 23:06:48 34° WSW 23:09:54 74° S 23:51:56 10° E
Cosmos 2219 Rocket 3.2 23:05:03 10° NW 23:09:09 39° WNW 23:09:09 39° WNW
CZ-2C R/B 4.1 23:13:05 43° WNW 23:13:05 43° WNW 23:17:24 10° NNW
Mayak 1.4 23:22:05 10° NNE 23:22:59 16° NNE 23:22:59 16° NNE
USA 229 DEB 4.3 23:33:25 47° NE 23:33:25 47° NE 23:38:14 10° NE
USA 229 4.3 23:33:33 46° NE 23:33:33 46° NE 23:38:20 10° NE
Terra 4.3 23:39:19 14° WNW 23:39:19 14° WNW 23:40:43 10° NW
COSMOS 2455 4.2 23:40:12 31° WNW 23:41:03 32° WNW 23:46:25 10° N
Cosmos 2333 Rocket 3.9 23:36:39 10° NW 23:39:47 24° WNW 23:39:47 24° WNW
SL-16 R/B 3.2 23:36:43 10° NNW 23:40:43 42° NNE 23:40:43 42° NNE
Cosmos 2297 Rocket 3.8 23:52:30 27° WNW 23:52:41 27° WNW 23:57:25 10° N
